HP1CDW-11 Weather Reports


time (UTC)temp
C
wind
direction
speed
KPH
gust
KPH
rain 1hr
cm
rain 24hr
cm
rain mn
cm
humidity
%
barometer
mb
20260507153918 30 0.0 0.0 0.00 0.00 0.00 38 1010.8
20260507152917 29 0.0 0.0 0.00 0.00 0.00 39 1011.0
20260507151917 28 0.0 0.0 0.00 0.00 0.00 42 1011.2
20260507150917 22 0.0 0.0 0.00 0.00 0.00 57 1011.2
20260507145917 22 0.0 0.0 0.00 0.00 0.00 56 1011.3
20260507144916 23 0.0 0.0 0.00 0.00 0.00 57 1011.3
20260507143916 25 0.0 0.0 0.00 0.00 0.00 57 1011.2
20260507142915 31 0.0 0.0 0.00 0.00 0.00 49 1011.2
20260507141915 31 0.0 0.0 0.00 0.00 0.00 50 1011.2
20260507140915 31 0.0 0.0 0.00 0.00 0.00 51 1011.3
20260507135914 31 0.0 0.0 0.00 0.00 0.00 53 1011.3
20260507134914 31 0.0 0.0 0.00 0.00 0.00 54 1011.2
20260507133914 31 0.0 0.0 0.00 0.00 0.00 55 1011.1
20260507132913 31 0.0 0.0 0.00 0.00 0.00 55 1011.0
20260507131913 31 0.0 0.0 0.00 0.00 0.00 57 1010.8
20260507130913 30 0.0 0.0 0.00 0.00 0.00 59 1010.7
20260507125913 30 0.0 0.0 0.00 0.00 0.00 60 1010.8
20260507124912 30 0.0 0.0 0.00 0.00 0.00 60 1010.7
20260507123912 30 0.0 0.0 0.00 0.00 0.00 60 1010.8
20260507122912 30 0.0 0.0 0.00 0.00 0.00 60 1010.9
20260507121911 30 0.0 0.0 0.00 0.00 0.00 60 1010.8
20260507120911 30 0.0 0.0 0.00 0.00 0.00 59 1010.6
20260507115911 30 0.0 0.0 0.00 0.00 0.00 60 1010.5
20260507114910 30 0.0 0.0 0.00 0.00 0.00 60 1010.4
20260507113910 30 0.0 0.0 0.00 0.00 0.00 60 1010.3
20260507112910 30 0.0 0.0 0.00 0.00 0.00 60 1010.1
20260507111909 30 0.0 0.0 0.00 0.00 0.00 59 1009.9
20260507110909 30 0.0 0.0 0.00 0.00 0.00 60 1009.9
20260507105909 30 0.0 0.0 0.00 0.00 0.00 60 1009.8
20260507104908 30 0.0 0.0 0.00 0.00 0.00 59 1009.6
20260507103908 30 0.0 0.0 0.00 0.00 0.00 59 1009.5
20260507102908 30 0.0 0.0 0.00 0.00 0.00 59 1009.4
20260507101907 30 0.0 0.0 0.00 0.00 0.00 59 1009.5
20260507100907 30 0.0 0.0 0.00 0.00 0.00 59 1009.5
20260507095907 30 0.0 0.0 0.00 0.00 0.00 59 1009.4
20260507094906 30 0.0 0.0 0.00 0.00 0.00 59 1009.4
20260507093906 30 0.0 0.0 0.00 0.00 0.00 59 1009.3
20260507092906 30 0.0 0.0 0.00 0.00 0.00 59 1009.3
20260507091906 30 0.0 0.0 0.00 0.00 0.00 59 1009.3
20260507090905 30 0.0 0.0 0.00 0.00 0.00 58 1009.3
20260507085905 31 0.0 0.0 0.00 0.00 0.00 58 1009.2
20260507084905 31 0.0 0.0 0.00 0.00 0.00 58 1009.5
20260507083904 31 0.0 0.0 0.00 0.00 0.00 58 1009.5
20260507082904 31 0.0 0.0 0.00 0.00 0.00 58 1009.5
20260507081904 31 0.0 0.0 0.00 0.00 0.00 58 1009.5
20260507080903 31 0.0 0.0 0.00 0.00 0.00 58 1009.6
20260507075903 31 0.0 0.0 0.00 0.00 0.00 57 1009.5
20260507074903 31 0.0 0.0 0.00 0.00 0.00 57 1009.6
20260507073902 31 0.0 0.0 0.00 0.00 0.00 57 1009.8
20260507072902 31 0.0 0.0 0.00 0.00 0.00 57 1009.9
20260507071902 31 0.0 0.0 0.00 0.00 0.00 57 1009.9
20260507070901 31 0.0 0.0 0.00 0.00 0.00 57 1010.0
20260507065901 31 0.0 0.0 0.00 0.00 0.00 57 1010.2
20260507064901 31 0.0 0.0 0.00 0.00 0.00 57 1010.4
20260507063900 31 0.0 0.0 0.00 0.00 0.00 57 1010.4
20260507062900 31 0.0 0.0 0.00 0.00 0.00 56 1010.5
20260507061900 31 0.0 0.0 0.00 0.00 0.00 56 1010.5
20260507060859 31 0.0 0.0 0.00 0.00 0.00 56 1010.6
20260507055859 31 0.0 0.0 0.00 0.00 0.00 56 1010.7
20260507054859 31 0.0 0.0 0.00 0.00 0.00 56 1010.8
20260507053858 31 0.0 0.0 0.00 0.00 0.00 56 1010.9
20260507052858 31 0.0 0.0 0.00 0.00 0.00 56 1010.9
20260507051858 31 0.0 0.0 0.00 0.00 0.00 55 1010.9
20260507050858 31 0.0 0.0 0.00 0.00 0.00 55 1011.0
20260507045857 31 0.0 0.0 0.00 0.00 0.00 55 1010.9
20260507044857 31 0.0 0.0 0.00 0.00 0.00 55 1011.0
20260507043858 31 0.0 0.0 0.00 0.00 0.00 54 1011.1
20260507042856 31 0.0 0.0 0.00 0.00 0.00 54 1011.1
20260507041856 31 0.0 0.0 0.00 0.00 0.00 54 1011.0
20260507040856 31 0.0 0.0 0.00 0.00 0.00 54 1010.9
20260507035855 31 0.0 0.0 0.00 0.00 0.00 53 1010.8
20260507034855 31 0.0 0.0 0.00 0.00 0.00 53 1010.8
20260507033855 31 0.0 0.0 0.00 0.00 0.00 53 1010.6
20260507032854 31 0.0 0.0 0.00 0.00 0.00 53 1010.5
20260507031854 31 0.0 0.0 0.00 0.00 0.00 52 1010.5
20260507030854 31 0.0 0.0 0.00 0.00 0.00 52 1010.4
20260507025853 31 0.0 0.0 0.00 0.00 0.00 52 1010.3
20260507024853 31 0.0 0.0 0.00 0.00 0.00 51 1010.2
20260507023853 31 0.0 0.0 0.00 0.00 0.00 51 1010.1
20260507022852 31 0.0 0.0 0.00 0.00 0.00 51 1010.0
20260507021852 31 0.0 0.0 0.00 0.00 0.00 51 1010.1
20260507020719 31 0.0 0.0 0.00 0.00 0.00 50 1010.0
20260507015719 31 0.0 0.0 0.00 0.00 0.00 49 1009.9
20260507014719 31 0.0 0.0 0.00 0.00 0.00 49 1009.8
20260507013719 31 0.0 0.0 0.00 0.00 0.00 49 1009.6
20260507012718 31 0.0 0.0 0.00 0.00 0.00 48 1009.6
20260507011718 31 0.0 0.0 0.00 0.00 0.00 48 1009.5
20260507010718 31 0.0 0.0 0.00 0.00 0.00 47 1009.4
20260507005717 32 0.0 0.0 0.00 0.00 0.00 47 1009.5
20260507004717 32 0.0 0.0 0.00 0.00 0.00 46 1009.4
20260507003717 32 0.0 0.0 0.00 0.00 0.00 45 1009.3
20260507002716 32 0.0 0.0 0.00 0.00 0.00 44 1009.3
20260507001716 32 0.0 0.0 0.00 0.00 0.00 43 1009.3
20260507000716 32 0.0 0.0 0.00 0.00 0.00 42 1009.3
20260506235715 31 0.0 0.0 0.00 0.00 0.00 41 1009.2
20260506234715 31 0.0 0.0 0.00 0.00 0.00 38 1009.2
20260506233715 31 0.0 0.0 0.00 0.00 0.00 38 1009.1
20260506232714 32 0.0 0.0 0.00 0.00 0.00 38 1009.1
20260506231714 32 0.0 0.0 0.00 0.00 0.00 42 1009.0
20260506230714 32 0.0 0.0 0.00 0.00 0.00 43 1008.9
20260506225713 32 0.0 0.0 0.00 0.00 0.00 43 1008.8
20260506224713 32 0.0 0.0 0.00 0.00 0.00 44 1008.6
20260506223713 32 0.0 0.0 0.00 0.00 0.00 44 1008.6
20260506222712 32 0.0 0.0 0.00 0.00 0.00 44 1008.5
20260506221712 32 0.0 0.0 0.00 0.00 0.00 42 1008.4
20260506220712 32 0.0 0.0 0.00 0.00 0.00 40 1008.5
20260506215711 32 0.0 0.0 0.00 0.00 0.00 50 1008.6
20260506214711 32 0.0 0.0 0.00 0.00 0.00 49 1008.5
20260506213711 32 0.0 0.0 0.00 0.00 0.00 49 1008.3
20260506212710 32 0.0 0.0 0.00 0.00 0.00 49 1008.2
20260506211710 32 0.0 0.0 0.00 0.00 0.00 49 1008.2
20260506210711 32 0.0 0.0 0.00 0.00 0.00 49 1008.1
20260506205709 32 0.0 0.0 0.00 0.00 0.00 49 1008.3
20260506204709 32 0.0 0.0 0.00 0.00 0.00 49 1008.4
20260506203709 32 0.0 0.0 0.00 0.00 0.00 49 1008.5
20260506202709 32 0.0 0.0 0.00 0.00 0.00 50 1008.5
20260506201708 32 0.0 0.0 0.00 0.00 0.00 49 1008.6
20260506200708 32 0.0 0.0 0.00 0.00 0.00 50 1008.7
20260506195902 32 0.0 0.0 0.00 0.00 0.00 51 1008.6
20260506194902 32 0.0 0.0 0.00 0.00 0.00 51 1008.6
20260506193902 32 0.0 0.0 0.00 0.00 0.00 50 1008.7
20260506192901 32 0.0 0.0 0.00 0.00 0.00 50 1008.8
20260506191901 32 0.0 0.0 0.00 0.00 0.00 51 1008.7
20260506190901 32 0.0 0.0 0.00 0.00 0.00 50 1008.9
20260506185900 32 0.0 0.0 0.00 0.00 0.00 51 1008.9
20260506184900 32 0.0 0.0 0.00 0.00 0.00 50 1009.1
20260506183900 32 0.0 0.0 0.00 0.00 0.00 51 1009.3
20260506182859 32 0.0 0.0 0.00 0.00 0.00 50 1009.4
20260506181859 32 0.0 0.0 0.00 0.00 0.00 48 1009.6
20260506180859 32 0.0 0.0 0.00 0.00 0.00 50 1009.8
20260506175858 31 0.0 0.0 0.00 0.00 0.00 47 1009.9
20260506174858 31 0.0 0.0 0.00 0.00 0.00 54 1009.9
20260506173858 31 0.0 0.0 0.00 0.00 0.00 54 1010.1
20260506172857 31 0.0 0.0 0.00 0.00 0.00 54 1010.3
20260506171857 31 0.0 0.0 0.00 0.00 0.00 53 1010.5
20260506170857 31 0.0 0.0 0.00 0.00 0.00 53 1010.6
20260506165856 31 0.0 0.0 0.00 0.00 0.00 56 1010.7
20260506164856 31 0.0 0.0 0.00 0.00 0.00 56 1010.8
20260506163856 31 0.0 0.0 0.00 0.00 0.00 56 1010.8
20260506162855 31 0.0 0.0 0.00 0.00 0.00 56 1011.0
20260506161855 31 0.0 0.0 0.00 0.00 0.00 56 1011.0
20260506160855 31 0.0 0.0 0.00 0.00 0.00 55 1011.2
20260506155854 31 0.0 0.0 0.00 0.00 0.00 57 1011.3
20260506154854 31 0.0 0.0 0.00 0.00 0.00 57 1011.4